FW9465 Weather Reports


time (UTC)temp
C
wind
direction
speed
KPH
gust
KPH
rain 1hr
cm
rain 24hr
cm
rain mn
cm
humidity
%
barometer
mb
20260509211224 31 76 6.4 8.0 0.00 0.00 0.00 39 1008.1
20260509204324 31 24 6.4 9.7 0.00 0.00 0.00 37 1008.5
20260509203423 31 22 6.4 11.3 0.00 0.00 0.00 40 1008.7
20260509202424 31 55 8.0 12.9 0.00 0.00 0.00 40 1008.7
20260509195624 31 337 4.8 8.0 0.00 0.00 0.00 43 1008.9
20260509194722 31 228 0.0 0.0 0.00 0.00 0.00 43 1009.1
20260509193723 30 298 4.8 8.0 0.00 0.00 0.00 44 1009.2
20260509192724 31 328 1.6 6.4 0.00 0.00 0.00 43 1009.4
20260509191724 30 302 1.6 6.4 0.00 0.00 0.00 43 1009.4
20260509190823 30 45 3.2 6.4 0.00 0.00 0.00 45 1009.5
20260509185822 31 285 1.6 4.8 0.00 0.00 0.00 42 1009.5
20260509184823 30 86 1.6 8.0 0.00 0.00 0.00 44 1009.8
20260509183840 30 290 3.2 8.0 0.00 0.00 0.00 44 1009.7
20260509182839 30 254 6.4 9.7 0.00 0.00 0.00 48 1010.0
20260509181823 30 356 1.6 4.8 0.00 0.00 0.00 47 1010.0
20260509180825 30 87 0.0 1.6 0.00 0.00 0.00 47 1010.0
20260509175823 30 243 4.8 11.3 0.00 0.00 0.00 49 1010.1
20260509174824 28 337 0.0 4.8 0.00 0.00 0.00 50 1010.2
20260509173824 28 249 3.2 8.0 0.00 0.00 0.00 50 1010.3
20260509172838 28 353 1.6 3.2 0.00 0.00 0.00 52 1010.4
20260509171823 27 261 9.7 12.9 0.00 0.00 0.00 51 1010.3
20260509170922 27 269 8.0 11.3 0.00 0.00 0.00 52 1010.3
20260509165925 27 281 4.8 9.7 0.00 0.00 0.00 51 1010.5
20260509164922 27 288 6.4 16.1 0.00 0.00 0.00 54 1010.6
20260509163923 26 271 11.3 16.1 0.00 0.00 0.00 54 1010.7
20260509162924 26 284 6.4 12.9 0.00 0.00 0.00 57 1010.8
20260509161923 26 291 8.0 14.5 0.00 0.00 0.00 56 1011.0
20260509160923 27 296 4.8 8.0 0.00 0.00 0.00 58 1010.8
20260509155939 26 346 6.4 9.7 0.00 0.00 0.00 59 1010.8
20260509154024 26 301 1.6 4.8 0.00 0.00 0.00 61 1010.7
20260509153122 25 16 1.6 4.8 0.00 0.00 0.00 63 1010.5
20260509152122 25 295 8.0 11.3 0.00 0.00 0.00 65 1010.4
20260509151122 24 328 9.7 12.9 0.00 0.00 0.00 66 1010.7
20260509150124 24 330 9.7 12.9 0.00 0.00 0.00 66 1010.7
20260509144122 23 356 6.4 12.9 0.00 0.00 0.00 65 1010.7
20260509143123 23 352 8.0 12.9 0.00 0.00 0.00 70 1010.7
20260509142123 23 310 9.7 12.9 0.00 0.00 0.00 70 1010.7
20260509141122 22 315 4.8 8.0 0.00 0.00 0.00 75 1010.7
20260509140222 22 293 9.7 12.9 0.00 0.00 0.00 76 1011.0
20260509134222 21 279 4.8 9.7 0.00 0.00 0.00 77 1011.2
20260509133239 21 272 6.4 11.3 0.00 0.00 0.00 78 1011.0
20260509132329 20 292 11.3 14.5 0.00 0.00 0.00 77 1011.0
20260509130341 20 279 6.4 12.9 0.00 0.00 0.00 78 1011.0
20260509125323 20 295 4.8 9.7 0.00 0.00 0.00 78 1011.0
20260509124323 20 281 6.4 11.3 0.00 0.00 0.00 77 1011.0
20260509123423 20 322 4.8 11.3 0.00 0.00 0.00 79 1010.8
20260509122440 20 259 4.8 8.0 0.00 0.00 0.00 80 1010.7
20260509121521 19 275 1.6 4.8 0.00 0.00 0.00 81 1010.7
20260509115522 20 292 3.2 6.4 0.00 0.00 0.00 80 1010.3
20260509114524 20 336 6.4 8.0 0.00 0.00 0.00 80 1010.3
20260509113523 20 337 3.2 6.4 0.00 0.00 0.00 79 1009.9
20260509112622 20 22 6.4 9.7 0.00 0.00 0.00 78 1009.7
20260509111722 20 357 9.7 14.5 0.00 0.00 0.00 78 1009.4
20260509110725 20 335 9.7 12.9 0.00 0.00 0.00 76 1009.4
20260509105722 20 337 9.7 11.3 0.00 0.00 0.00 75 1009.4
20260509104722 20 330 12.9 16.1 0.00 0.00 0.00 74 1009.4
20260509103738 20 313 14.5 22.5 0.00 0.00 0.00 73 1009.6
20260509102821 20 305 14.5 25.7 0.00 0.00 0.00 73 1009.7
20260509101822 20 301 16.1 25.7 0.00 0.00 0.00 70 1009.6
20260509100921 21 291 9.7 16.1 0.00 0.00 0.00 68 1009.5
20260509095921 21 275 14.5 22.5 0.00 0.00 0.00 74 1009.4
20260509094938 21 273 8.0 11.3 0.00 0.00 0.00 80 1009.3
20260509094022 21 288 8.0 19.3 0.00 0.00 0.00 81 1009.3
20260509093022 20 204 12.9 29.0 0.00 0.00 0.00 84 1008.1
20260509092024 20 159 16.1 25.7 0.00 0.00 0.00 88 1006.1
20260509091022 19 161 17.7 22.5 0.00 0.00 0.00 85 1006.0
20260509090038 19 163 12.9 20.9 0.00 0.00 0.00 84 1006.3
20260509083221 19 185 8.0 14.5 0.00 0.00 0.00 86 1007.5
20260509082222 19 181 9.7 20.9 0.00 0.00 0.00 86 1007.9
20260509081221 19 171 12.9 19.3 0.00 0.00 0.00 87 1008.0
20260509080222 19 171 9.7 16.1 0.00 0.00 0.00 85 1008.6
20260509075322 20 164 9.7 14.5 0.00 0.00 0.00 85 1008.6
20260509074322 20 204 6.4 8.0 0.00 0.00 0.00 83 1008.8
20260509073341 20 161 11.3 16.1 0.00 0.00 0.00 81 1009.2
20260509072337 20 201 6.4 8.0 0.00 0.00 0.00 81 1010.1
20260509070423 20 249 8.0 14.5 0.00 0.00 0.00 87 1011.2
20260509065439 20 229 9.7 16.1 0.00 0.00 0.00 91 1011.8
20260509064521 20 270 9.7 14.5 0.00 0.00 0.00 91 1012.5
20260509063540 20 277 6.4 11.3 0.00 0.00 0.00 92 1012.1
20260509062621 19 280 6.4 9.7 0.00 0.00 0.00 93 1012.0
20260509061622 19 281 4.8 8.0 0.00 0.00 0.00 92 1012.0
20260509060721 19 292 8.0 9.7 0.00 0.00 0.00 91 1011.9
20260509055722 20 269 1.6 4.8 0.00 0.00 0.00 91 1011.5
20260509054722 20 324 1.6 4.8 0.00 0.00 0.00 91 1011.6
20260509053740 20 311 1.6 4.8 0.00 0.00 0.00 91 1011.3
20260509052722 20 346 9.7 14.5 0.00 0.00 0.00 89 1011.5
20260509051822 20 180 0.0 0.0 0.00 0.00 0.00 91 1010.6
20260509050920 20 157 0.0 0.0 0.00 0.00 0.00 90 1010.6
20260509045941 20 157 1.6 6.4 0.00 0.00 0.00 89 1010.4
20260509044928 20 157 1.6 4.8 0.00 0.00 0.00 87 1010.3
20260509044026 20 112 0.0 0.0 0.00 0.00 0.00 87 1010.6
20260509043043 20 112 0.0 3.2 0.00 0.00 0.00 87 1010.4
20260509042126 20 112 3.2 4.8 0.00 0.00 0.00 88 1010.4
20260509041144 21 90 1.6 4.8 0.00 0.00 0.00 87 1010.5
20260509040144 21 104 0.0 0.0 0.00 0.00 0.00 86 1010.3
20260509035126 21 156 8.0 11.3 0.00 0.00 0.00 87 1009.9
20260509034141 21 157 8.0 11.3 0.00 0.00 0.00 87 1009.8
20260509033225 21 157 4.8 12.9 0.00 0.00 0.00 87 1009.5
20260509031227 21 157 11.3 16.1 0.00 0.00 0.00 86 1009.1
20260509030326 21 161 9.7 12.9 0.00 0.00 0.00 86 1009.1
20260509025328 21 157 6.4 11.3 0.00 0.00 0.00 86 1008.8
20260509023327 21 157 12.9 17.7 0.00 0.00 0.00 85 1008.2
20260509022327 21 160 11.3 14.5 0.00 0.00 0.00 85 1008.5
20260509021327 21 153 11.3 14.5 0.00 0.00 0.00 85 1008.5
20260509020342 21 140 6.4 11.3 0.00 0.00 0.00 84 1008.6
20260509015426 21 157 8.0 11.3 0.00 0.00 0.00 82 1008.6
20260509014442 21 135 4.8 8.0 0.00 0.00 0.00 82 1008.7
20260509013427 21 112 0.0 0.0 0.00 0.00 0.00 82 1008.9
20260509012526 21 112 0.0 0.0 0.00 0.00 0.00 81 1008.7
20260509011625 22 135 0.0 0.0 0.00 0.00 0.00 80 1008.6
20260509005727 22 103 0.0 4.8 0.00 0.00 0.00 78 1008.1
20260509003725 22 135 3.2 4.8 0.00 0.00 0.00 78 1007.9
20260509002725 22 135 3.2 6.4 0.00 0.00 0.00 77 1008.0
20260509001727 22 135 0.0 1.6 0.00 0.00 0.00 76 1008.2
20260509000742 22 135 1.6 6.4 0.00 0.00 0.00 77 1008.4
20260508235727 22 157 1.6 6.4 0.00 0.00 0.00 76 1008.3
20260508234825 23 135 1.6 6.4 0.00 0.00 0.00 76 1008.4
20260508233827 22 150 1.6 8.0 0.00 0.00 0.00 76 1008.6
20260508232842 22 135 1.6 3.2 0.00 0.00 0.00 76 1008.5
20260508231925 22 157 3.2 6.4 0.00 0.00 0.00 76 1008.4
20260508230926 22 156 4.8 9.7 0.00 0.00 0.00 74 1008.3
20260508225926 22 182 4.8 14.5 0.00 0.00 0.00 75 1008.6
20260508224926 23 153 9.7 12.9 0.00 0.00 0.00 73 1008.4
20260508223926 23 149 9.7 11.3 0.00 0.00 0.00 73 1008.3
20260508222924 23 154 14.5 19.3 0.00 0.00 0.00 72 1008.2
20260508221926 23 156 12.9 17.7 0.00 0.00 0.00 73 1008.3
20260508220926 23 166 14.5 20.9 0.00 0.00 0.00 72 1008.4
20260508215925 23 160 19.3 24.1 0.00 0.00 0.00 71 1008.6
20260508213927 22 158 8.0 16.1 0.00 0.00 0.00 70 1008.8